Location: Dodgeville
(42.9600°N, 90.1300°W)
Time: 02:41:41
(UTC-05:00)

Uosat F - Visible Passes

Search period start: 26 October 2014 00:00
Search period end: 04 November 2014 23:00
Orbit: 752 x 761 km, 98.7° (Epoch: 25 October)

Date Brightness Start Highest point End Pass type
(mag) Time Alt. Az. Time Alt. Az. Time Alt. Az.
26 Oct 11.7 05:19:29 10° NNE 05:24:29 57° E 05:29:26 10° S visible
27 Oct 13.2 04:40:59 10° NE 04:45:07 25° E 04:49:13 10° SSE visible
27 Oct 11.5 06:19:18 10° N 06:24:01 41° WNW 06:28:43 10° SW visible
28 Oct 14.2 04:05:02 10° E 04:05:31 10° E 04:05:59 10° E visible
28 Oct 11.0 05:39:55 10° NNE 05:45:00 88° ESE 05:50:03 10° SSW visible
29 Oct 12.4 05:01:02 10° NNE 05:05:45 38° E 05:10:25 10° SSE visible
29 Oct 12.0 06:40:08 10° N 06:44:22 27° WNW 06:48:34 10° WSW visible
30 Oct 13.7 04:23:06 10° NE 04:26:16 17° E 04:29:25 10° SE visible
30 Oct 11.0 06:00:28 10° N 06:05:27 61° WNW 06:10:24 10° SSW visible
31 Oct 11.6 05:21:18 10° NNE 05:26:19 59° ESE 05:31:16 10° S visible
31 Oct 12.4 07:01:11 10° NNW 07:04:38 19° WNW 07:08:04 10° WSW visible
31 Oct 14.7 18:18:43 10° W 18:19:51 11° W 18:21:00 10° WNW visible
01 Nov 13.1 04:42:47 10° NE 04:46:57 25° E 04:51:05 10° SSE visible
01 Nov 11.5 06:21:08 10° N 06:25:50 40° WNW 06:30:30 10° SW visible
02 Nov 14.2 03:06:26 10° ENE 03:07:20 10° E 03:08:15 10° E visible
02 Nov 11.0 04:41:44 10° NNE 04:46:49 90° SE 04:51:51 10° SSW visible
03 Nov 12.4 04:02:50 10° NNE 04:07:34 39° E 04:12:14 10° SSE visible
03 Nov 12.0 05:41:58 10° N 05:46:09 27° WNW 05:50:19 10° WSW visible
04 Nov 13.7 03:24:50 10° NE 03:28:05 17° E 03:31:17 10° SE visible
04 Nov 11.1 05:02:16 10° N 05:07:15 59° WNW 05:12:11 10° SSW visible
